Weather History for Monroe, MI

Change the Weather History Date:

Tuesday, March 12, 2013

  Actual Average Record
Temperature  
Mean Temperature 36 °F -  
Max Temperature 39 °F 41 °F 66 °F (2006)
Min Temperature 33 °F 26 °F 0 °F (1948)
Degree Days  
Heating Degree Days 29    
Moisture  
Dew Point 31 °F    
Average Humidity 81    
Maximum Humidity 93    
Minimum Humidity 70    
Precipitation  
Precipitation 0.00 in - - ()
Sea Level Pressure  
Sea Level Pressure 29.84 in    
Wind  
Wind Speed 15 mph (WSW)    
Max Wind Speed 21 mph    
Max Gust Speed 30 mph    
Visibility 10 miles    
Events Snow    
Averages and records for this station are not official NWS values.
T = Trace of Precipitation, MM = Missing Value Source: NWS Daily Summary

Daily Weather History Graph

Daily Weather History Graph

Search for Another Location

Airport:

Trip Planner

Search our weather history database for the weather conditions in past years. The results will help you decide how hot, cold, wet, or windy it might be!

Date:

Astronomy

Mar. 12, 2013 Rise Set
Actual Time 7:50 AM EDT 7:37 PM EDT
Civil Twilight 7:22 AM EDT 8:04 PM EDT
Nautical Twilight 6:50 AM EDT 8:37 PM EDT
Astronomical Twilight 6:17 AM EDT 9:10 PM EDT
Moon 7:54 AM EDT (3/12) 8:53 PM EDT (3/12)
Length of Visible Light 12h 42m
Length of Day
11h 46m
New Moon, 1% of the Moon is Illuminated
Mar 12
New Moon
Mar 19
First Quarter
Mar 27
Full
Apr 3
Last Quarter
Apr 10
New

Hourly Weather History & Observations

Time (EDT) Temp. Windchill Dew Point Humidity Pressure Visibility Wind Dir Wind Speed Gust Speed Precip Events Conditions
12:14 AM 39.2 °F 29.6 °F 33.8 °F 81% 29.71 in 10.0 mi SW 19.6 mph 24.2 mph N/A   Overcast
12:34 AM 39.2 °F 30.8 °F 33.8 °F 81% 29.71 in 10.0 mi SW 15.0 mph 25.3 mph N/A   Overcast
12:54 AM 39.2 °F 30.2 °F 33.8 °F 81% 29.72 in 10.0 mi SW 17.3 mph 23.0 mph N/A   Overcast
1:15 AM 39.2 °F 30.5 °F 33.8 °F 81% 29.72 in 10.0 mi SW 16.1 mph 25.3 mph N/A   Overcast
1:35 AM 39.2 °F 30.5 °F 33.8 °F 81% 29.72 in 10.0 mi SW 16.1 mph 24.2 mph N/A   Overcast
1:55 AM 37.4 °F 28.5 °F 33.8 °F 87% 29.73 in 10.0 mi WSW 15.0 mph 20.7 mph N/A   Overcast
2:15 AM 37.4 °F 26.9 °F 33.8 °F 87% 29.73 in 10.0 mi WSW 20.7 mph 24.2 mph N/A   Overcast
2:35 AM 37.4 °F 27.5 °F 33.8 °F 87% 29.74 in 10.0 mi WSW 18.4 mph 25.3 mph N/A   Overcast
2:55 AM 37.4 °F 28.5 °F 33.8 °F 87% 29.74 in 10.0 mi WSW 15.0 mph 23.0 mph N/A   Overcast
3:15 AM 37.4 °F 27.5 °F 33.8 °F 87% 29.75 in 10.0 mi West 18.4 mph - N/A   Overcast
3:35 AM 37.4 °F 29.3 °F 33.8 °F 87% 29.75 in 10.0 mi West 12.7 mph - N/A   Overcast
3:55 AM 37.4 °F 28.5 °F 33.8 °F 87% 29.76 in 10.0 mi WSW 15.0 mph 20.7 mph N/A   Overcast
4:15 AM 37.4 °F 28.5 °F 33.8 °F 87% 29.76 in 10.0 mi WSW 15.0 mph 19.6 mph N/A   Overcast
4:31 AM 37.4 °F 28.2 °F 32.0 °F 81% 29.75 in 10.0 mi West 16.1 mph 23.0 mph N/A   Overcast
4:51 AM 37.4 °F 28.9 °F 32.0 °F 81% 29.76 in 10.0 mi WSW 13.8 mph 18.4 mph N/A   Overcast
5:11 AM 37.4 °F 28.9 °F 32.0 °F 81% 29.76 in 10.0 mi WSW 13.8 mph 23.0 mph N/A   Overcast
5:31 AM 37.4 °F 29.8 °F 32.0 °F 81% 29.77 in 10.0 mi WSW 11.5 mph 19.6 mph N/A   Overcast
5:51 AM 35.6 °F 26.6 °F 32.0 °F 87% 29.77 in 10.0 mi WSW 13.8 mph 21.9 mph N/A   Overcast
6:11 AM 35.6 °F 27.1 °F 32.0 °F 87% 29.78 in 10.0 mi West 12.7 mph - N/A   Overcast
6:31 AM 35.6 °F 27.1 °F 32.0 °F 87% 29.79 in 10.0 mi WSW 12.7 mph 17.3 mph N/A   Overcast
6:52 AM 35.6 °F 26.6 °F 32.0 °F 87% 29.79 in 10.0 mi WSW 13.8 mph 19.6 mph N/A   Overcast
7:12 AM 35.6 °F 27.1 °F 32.0 °F 87% 29.80 in 10.0 mi WSW 12.7 mph 19.6 mph N/A   Overcast
7:32 AM 35.6 °F 25.9 °F 32.0 °F 87% 29.80 in 10.0 mi WSW 16.1 mph - N/A   Overcast
7:52 AM 35.6 °F 27.5 °F 32.0 °F 87% 29.81 in 10.0 mi WSW 11.5 mph - N/A   Overcast
8:12 AM 35.6 °F 27.5 °F 33.8 °F 93% 29.81 in 10.0 mi WSW 11.5 mph - N/A   Overcast
8:32 AM 35.6 °F 27.5 °F 32.0 °F 87% 29.82 in 10.0 mi WSW 11.5 mph 19.6 mph N/A   Overcast
8:53 AM 35.6 °F 26.6 °F 33.8 °F 93% 29.82 in 10.0 mi SW 13.8 mph - N/A   Overcast
9:13 AM 35.6 °F 25.9 °F 32.0 °F 87% 29.83 in 10.0 mi WSW 16.1 mph - N/A   Overcast
9:33 AM 35.6 °F 28.0 °F 32.0 °F 87% 29.84 in 7.0 mi SW 10.4 mph - N/A   Overcast
9:53 AM 35.6 °F 27.1 °F 32.0 °F 87% 29.85 in 10.0 mi WSW 12.7 mph - N/A   Overcast
10:13 AM 35.6 °F 26.2 °F 32.0 °F 87% 29.85 in 7.0 mi WSW 15.0 mph 21.9 mph N/A   Overcast
10:33 AM 35.6 °F 26.2 °F 32.0 °F 87% 29.85 in 10.0 mi WSW 15.0 mph - N/A   Overcast
10:53 AM 35.6 °F 25.5 °F 32.0 °F 87% 29.85 in 7.0 mi SW 17.3 mph - N/A   Overcast
11:13 AM 35.6 °F 26.2 °F 32.0 °F 87% 29.85 in 5.0 mi WSW 15.0 mph - N/A   Overcast
11:33 AM 35.6 °F 26.2 °F 32.0 °F 87% 29.86 in 5.0 mi WSW 15.0 mph 19.6 mph N/A Snow Light Snow
11:54 AM 35.6 °F 26.6 °F 32.0 °F 87% 29.86 in 7.0 mi WSW 13.8 mph 19.6 mph N/A   Overcast
12:14 PM 35.6 °F 26.2 °F 32.0 °F 87% 29.86 in 7.0 mi SW 15.0 mph - N/A   Overcast
12:34 PM 35.6 °F 25.9 °F 30.2 °F 81% 29.86 in 7.0 mi WSW 16.1 mph - N/A   Overcast
12:54 PM 35.6 °F 25.2 °F 30.2 °F 81% 29.86 in 7.0 mi WSW 18.4 mph - N/A   Overcast
1:14 PM 35.6 °F 26.2 °F 30.2 °F 81% 29.87 in 7.0 mi WSW 15.0 mph 23.0 mph N/A   Overcast
1:34 PM 37.4 °F 27.8 °F 32.0 °F 81% 29.87 in 7.0 mi WSW 17.3 mph 21.9 mph N/A   Overcast
1:54 PM 37.4 °F 27.2 °F 30.2 °F 75% 29.87 in 10.0 mi WSW 19.6 mph 25.3 mph N/A   Overcast
2:14 PM 37.4 °F 27.2 °F 30.2 °F 75% 29.87 in 10.0 mi WSW 19.6 mph 26.5 mph N/A   Overcast
2:34 PM 35.6 °F 24.5 °F 30.2 °F 81% 29.87 in 10.0 mi SW 20.7 mph 27.6 mph N/A   Overcast
2:54 PM 35.6 °F 25.9 °F 30.2 °F 81% 29.87 in 10.0 mi WSW 16.1 mph 26.5 mph N/A   Overcast
3:14 PM 35.6 °F 27.5 °F 30.2 °F 81% 29.86 in 10.0 mi SW 11.5 mph - N/A   Overcast
3:35 PM 37.4 °F 27.2 °F 28.4 °F 70% 29.86 in 10.0 mi SW 19.6 mph 25.3 mph N/A   Overcast
3:55 PM 37.4 °F 27.5 °F 28.4 °F 70% 29.87 in 10.0 mi WSW 18.4 mph 26.5 mph N/A   Overcast
4:15 PM 35.6 °F 24.5 °F 28.4 °F 75% 29.87 in 10.0 mi WSW 20.7 mph 27.6 mph N/A   Overcast
4:35 PM 35.6 °F 26.2 °F 28.4 °F 75% 29.87 in 10.0 mi SW 15.0 mph 24.2 mph N/A   Overcast
4:55 PM 35.6 °F 25.5 °F 28.4 °F 75% 29.88 in 10.0 mi WSW 17.3 mph 21.9 mph N/A   Overcast
5:15 PM 35.6 °F 25.5 °F 28.4 °F 75% 29.88 in 10.0 mi WSW 17.3 mph 23.0 mph N/A   Overcast
5:35 PM 35.6 °F 26.2 °F 26.6 °F 70% 29.89 in 10.0 mi WSW 15.0 mph 25.3 mph N/A   Overcast
5:55 PM 35.6 °F 24.5 °F 26.6 °F 70% 29.89 in 10.0 mi WSW 20.7 mph 29.9 mph N/A   Overcast
6:15 PM 35.6 °F 25.2 °F 26.6 °F 70% 29.89 in 10.0 mi WSW 18.4 mph 26.5 mph N/A   Overcast
6:36 PM 35.6 °F 26.2 °F 26.6 °F 70% 29.90 in 10.0 mi WSW 15.0 mph 20.7 mph N/A   Overcast
6:56 PM 35.6 °F 28.0 °F 28.4 °F 75% 29.90 in 10.0 mi WSW 10.4 mph 18.4 mph N/A   Overcast
7:16 PM 35.6 °F 27.5 °F 28.4 °F 75% 29.90 in 10.0 mi WSW 11.5 mph 17.3 mph N/A   Overcast
7:36 PM 35.6 °F 28.0 °F 28.4 °F 75% 29.90 in 10.0 mi WSW 10.4 mph - N/A   Overcast
7:56 PM 35.6 °F 27.1 °F 28.4 °F 75% 29.90 in 10.0 mi WSW 12.7 mph - N/A   Overcast
8:16 PM 35.6 °F 28.6 °F 28.4 °F 75% 29.91 in 10.0 mi SW 9.2 mph - N/A   Overcast
8:36 PM 35.6 °F 26.6 °F 28.4 °F 75% 29.91 in 10.0 mi WSW 13.8 mph 19.6 mph N/A   Overcast
8:51 PM 35.6 °F 28.0 °F 28.4 °F 75% 29.91 in 10.0 mi WSW 10.4 mph 17.3 mph N/A   Overcast
9:11 PM 33.8 °F 26.4 °F 28.4 °F 81% 29.91 in 10.0 mi WSW 9.2 mph - N/A   Scattered Clouds
9:31 PM 33.8 °F 26.4 °F 28.4 °F 81% 29.92 in 10.0 mi WSW 9.2 mph - N/A   Clear
9:52 PM 33.8 °F 26.4 °F 28.4 °F 81% 29.92 in 10.0 mi WSW 9.2 mph - N/A   Clear
10:12 PM 33.8 °F 26.4 °F 28.4 °F 81% 29.92 in 10.0 mi WSW 9.2 mph - N/A   Clear
10:32 PM 33.8 °F 27.0 °F 28.4 °F 81% 29.92 in 10.0 mi SW 8.1 mph - N/A   Clear
10:52 PM 33.8 °F 27.7 °F 28.4 °F 81% 29.92 in 10.0 mi SW 6.9 mph - N/A   Scattered Clouds
11:12 PM 33.8 °F 27.7 °F 28.4 °F 81% 29.91 in 10.0 mi SW 6.9 mph - N/A   Mostly Cloudy
11:32 PM 33.8 °F 27.7 °F 28.4 °F 81% 29.91 in 10.0 mi SSW 6.9 mph - N/A   Mostly Cloudy
11:52 PM 33.8 °F 27.0 °F 26.6 °F 75% 29.91 in 10.0 mi SSW 8.1 mph - N/A   Mostly Cloudy